| time (UTC) | temp F | wind direction | speed knots | gust knots | rain 1hr in | rain 24hr in | rain mn in | humidity % | barometer mb |
| 20260504223210 | 79 | 177 | 7.8 | 16.5 | 0.00 | 0.00 | 0.00 | 72 | 1010.6 |
| 20260504222707 | 79 | 172 | 7.0 | 16.5 | 0.00 | 0.00 | 0.00 | 72 | 1010.7 |
| 20260504222210 | 80 | 132 | 6.1 | 13.0 | 0.00 | 0.00 | 0.00 | 71 | 1010.9 |
| 20260504221708 | 80 | 159 | 5.2 | 12.2 | 0.00 | 0.00 | 0.00 | 71 | 1010.9 |
| 20260504221152 | 80 | 190 | 5.2 | 12.2 | 0.00 | 0.00 | 0.00 | 70 | 1010.9 |
| 20260504220651 | 80 | 191 | 6.1 | 14.8 | 0.00 | 0.00 | 0.00 | 71 | 1011.0 |
| 20260504220136 | 80 | 131 | 6.1 | 14.8 | 0.00 | 0.00 | 0.00 | 70 | 1011.0 |
| 20260504215625 | 80 | 145 | 6.1 | 13.9 | 0.00 | 0.00 | 0.00 | 69 | 1011.1 |
| 20260504215124 | 80 | 109 | 7.0 | 13.9 | 0.00 | 0.00 | 0.00 | 69 | 1011.1 |
| 20260504214624 | 80 | 124 | 7.0 | 12.2 | 0.00 | 0.00 | 0.00 | 68 | 1011.0 |
| 20260504214125 | 81 | 195 | 6.1 | 13.0 | 0.00 | 0.00 | 0.00 | 68 | 1011.1 |
| 20260504213607 | 81 | 170 | 6.1 | 12.2 | 0.00 | 0.00 | 0.00 | 67 | 1011.3 |
| 20260504213103 | 81 | 231 | 5.2 | 12.2 | 0.00 | 0.00 | 0.00 | 67 | 1011.2 |
| 20260504212620 | 81 | 216 | 6.1 | 10.4 | 0.00 | 0.00 | 0.00 | 66 | 1011.2 |
| 20260504212042 | 82 | 158 | 6.1 | 11.3 | 0.00 | 0.00 | 0.00 | 66 | 1011.3 |
| 20260504211514 | 82 | 145 | 5.2 | 11.3 | 0.00 | 0.00 | 0.00 | 66 | 1011.4 |
| 20260504210948 | 82 | 217 | 4.3 | 11.3 | 0.00 | 0.00 | 0.00 | 65 | 1011.4 |
| 20260504210700 | 82 | 125 | 4.3 | 10.4 | 0.00 | 0.00 | 0.00 | 64 | 1011.4 |
| 20260504205923 | 82 | 156 | 4.3 | 10.4 | 0.00 | 0.00 | 0.00 | 63 | 1011.6 |
| 20260504205358 | 82 | 55 | 4.3 | 8.7 | 0.00 | 0.00 | 0.00 | 65 | 1011.6 |
| 20260504204831 | 82 | 145 | 4.3 | 12.2 | 0.00 | 0.00 | 0.00 | 64 | 1011.7 |
| 20260504204306 | 82 | 204 | 5.2 | 12.2 | 0.00 | 0.00 | 0.00 | 64 | 1011.8 |
| 20260504203738 | 82 | 108 | 4.3 | 11.3 | 0.00 | 0.00 | 0.00 | 64 | 1011.7 |
| 20260504203235 | 83 | 193 | 3.5 | 11.3 | 0.00 | 0.00 | 0.00 | 63 | 1011.8 |
| 20260504202738 | 82 | 191 | 4.3 | 9.6 | 0.00 | 0.00 | 0.00 | 64 | 1011.9 |
| 20260504202229 | 82 | 185 | 5.2 | 13.0 | 0.00 | 0.00 | 0.00 | 63 | 1011.9 |
| 20260504201705 | 82 | 195 | 4.3 | 13.0 | 0.00 | 0.00 | 0.00 | 64 | 1012.1 |
| 20260504201201 | 82 | 187 | 5.2 | 10.4 | 0.00 | 0.00 | 0.00 | 64 | 1012.2 |
| 20260504200657 | 82 | 235 | 5.2 | 10.4 | 0.00 | 0.00 | 0.00 | 63 | 1012.4 |
| 20260504200132 | 83 | 219 | 3.5 | 7.8 | 0.00 | 0.00 | 0.00 | 62 | 1012.3 |
| 20260504195604 | 83 | 201 | 2.6 | 7.0 | 0.00 | 0.00 | 0.00 | 62 | 1012.4 |
| 20260504195101 | 83 | 179 | 3.5 | 11.3 | 0.00 | 0.00 | 0.00 | 64 | 1012.5 |
| 20260504194535 | 83 | 205 | 5.2 | 11.3 | 0.00 | 0.00 | 0.00 | 62 | 1012.6 |
| 20260504194008 | 83 | 116 | 5.2 | 10.4 | 0.00 | 0.00 | 0.00 | 62 | 1012.7 |
| 20260504193506 | 83 | 246 | 5.2 | 12.2 | 0.00 | 0.00 | 0.00 | 62 | 1012.7 |
| 20260504192939 | 83 | 212 | 6.1 | 12.2 | 0.00 | 0.00 | 0.00 | 63 | 1012.8 |
| 20260504192436 | 82 | 139 | 6.1 | 13.9 | 0.00 | 0.00 | 0.00 | 62 | 1012.9 |
| 20260504191908 | 82 | 203 | 6.1 | 13.9 | 0.00 | 0.00 | 0.00 | 62 | 1012.9 |
| 20260504191405 | 82 | 210 | 5.2 | 12.2 | 0.00 | 0.00 | 0.00 | 62 | 1013.0 |
| 20260504190838 | 82 | 195 | 4.3 | 11.3 | 0.00 | 0.00 | 0.00 | 62 | 1013.1 |
| 20260504190334 | 82 | 158 | 4.3 | 11.3 | 0.00 | 0.00 | 0.00 | 62 | 1013.2 |
| 20260504185832 | 82 | 185 | 4.3 | 8.7 | 0.00 | 0.00 | 0.00 | 61 | 1013.2 |
| 20260504185305 | 82 | 204 | 4.3 | 8.7 | 0.00 | 0.00 | 0.00 | 62 | 1013.2 |
| 20260504184802 | 81 | 133 | 5.2 | 10.4 | 0.00 | 0.00 | 0.00 | 63 | 1013.3 |
| 20260504184235 | 82 | 212 | 5.2 | 10.4 | 0.00 | 0.00 | 0.00 | 62 | 1013.4 |
| 20260504183710 | 83 | 197 | 5.2 | 15.6 | 0.00 | 0.00 | 0.00 | 62 | 1013.3 |
| 20260504183148 | 81 | 196 | 4.3 | 11.3 | 0.00 | 0.00 | 0.00 | 63 | 1013.1 |
| 20260504183142 | 82 | 177 | 5.2 | 15.6 | 0.00 | 0.00 | 0.00 | 63 | 1013.2 |
| 20260504182139 | 80 | 185 | 7.0 | 14.8 | 0.00 | 0.00 | 0.00 | 64 | 1013.5 |
| 20260504182134 | 80 | 131 | 6.1 | 14.8 | 0.00 | 0.00 | 0.00 | 64 | 1013.3 |
| 20260504181104 | 81 | 197 | 6.1 | 13.0 | 0.00 | 0.00 | 0.00 | 63 | 1013.6 |
| 20260504180831 | 80 | 118 | 6.1 | 12.2 | 0.00 | 0.00 | 0.00 | 63 | 1013.7 |
| 20260504180330 | 80 | 247 | 7.0 | 12.2 | 0.00 | 0.00 | 0.00 | 64 | 1013.9 |
| 20260504175531 | 80 | 220 | 7.0 | 12.2 | 0.00 | 0.00 | 0.00 | 63 | 1013.9 |
| 20260504175026 | 80 | 192 | 6.1 | 13.0 | 0.00 | 0.00 | 0.00 | 63 | 1013.8 |
| 20260504174523 | 80 | 177 | 6.1 | 13.0 | 0.00 | 0.00 | 0.00 | 63 | 1014.1 |
| 20260504173958 | 79 | 215 | 6.1 | 13.9 | 0.00 | 0.00 | 0.00 | 63 | 1014.1 |
| 20260504173430 | 80 | 189 | 6.1 | 13.9 | 0.00 | 0.00 | 0.00 | 64 | 1013.9 |
| 20260504173158 | 80 | 108 | 5.2 | 12.2 | 0.00 | 0.00 | 0.00 | 64 | 1014.1 |
| 20260504172630 | 80 | 204 | 5.2 | 10.4 | 0.00 | 0.00 | 0.00 | 64 | 1014.3 |
| 20260504171858 | 80 | 214 | 6.1 | 13.9 | 0.00 | 0.00 | 0.00 | 64 | 1014.5 |
| 20260504171356 | 80 | 187 | 5.2 | 13.9 | 0.00 | 0.00 | 0.00 | 64 | 1014.4 |
| 20260504170828 | 80 | 212 | 5.2 | 12.2 | 0.00 | 0.00 | 0.00 | 65 | 1014.5 |
| 20260504170327 | 79 | 121 | 5.2 | 12.2 | 0.00 | 0.00 | 0.00 | 66 | 1014.6 |
| 20260504160306 | 76 | 218 | 5.2 | 11.3 | 0.00 | 0.00 | 0.00 | 70 | 1015.4 |
| 20260504150829 | 74 | 138 | 6.1 | 10.4 | 0.00 | 0.00 | 0.00 | 73 | 1015.5 |
| 20260504150559 | 74 | 200 | 6.1 | 12.2 | 0.00 | 0.00 | 0.00 | 72 | 1015.3 |
| 20260504141016 | 73 | 131 | 1.7 | 4.3 | 0.00 | 0.00 | 0.00 | 72 | 1015.5 |
| 20260504140450 | 72 | 190 | 1.7 | 5.2 | 0.00 | 0.00 | 0.00 | 71 | 1015.4 |
| 20260504130634 | 68 | 152 | 1.7 | 4.3 | 0.00 | 0.00 | 0.00 | 77 | 1015.6 |
| 20260504130110 | 67 | 160 | 1.7 | 4.3 | 0.00 | 0.00 | 0.00 | 78 | 1015.5 |
| 20260504110537 | 62 | 172 | 0.0 | 1.7 | 0.00 | 0.00 | 0.00 | 83 | 1015.0 |
| 20260504100158 | 63 | 173 | 0.0 | 1.7 | 0.00 | 0.00 | 0.00 | 80 | 1015.3 |
| 20260504081850 | 64 | 177 | 0.9 | 2.6 | 0.00 | 0.00 | 0.00 | 78 | 1015.9 |
| 20260504081554 | 64 | 177 | 0.9 | 2.6 | 0.00 | 0.00 | 0.00 | 77 | 1016.0 |
| 20260504080818 | 64 | 177 | 0.9 | 3.5 | 0.00 | 0.00 | 0.00 | 77 | 1016.0 |
| 20260504080316 | 64 | 177 | 0.9 | 3.5 | 0.00 | 0.00 | 0.00 | 77 | 1016.2 |
| 20260504060214 | 66 | 175 | 0.9 | 3.5 | 0.00 | 0.00 | 0.00 | 71 | 1017.5 |
| 20260504050456 | 67 | 161 | 1.7 | 5.2 | 0.00 | 0.00 | 0.00 | 68 | 1017.9 |
| 20260504050201 | 67 | 161 | 1.7 | 4.3 | 0.00 | 0.00 | 0.00 | 68 | 1017.8 |
| 20260504045427 | 67 | 161 | 0.9 | 4.3 | 0.00 | 0.00 | 0.00 | 68 | 1017.9 |
| 20260504044901 | 67 | 161 | 0.9 | 4.3 | 0.00 | 0.00 | 0.00 | 67 | 1018.0 |
| 20260504044334 | 67 | 161 | 1.7 | 4.3 | 0.00 | 0.00 | 0.00 | 67 | 1017.9 |
| 20260504043832 | 67 | 161 | 1.7 | 3.5 | 0.00 | 0.00 | 0.00 | 67 | 1018.0 |
| 20260504043305 | 67 | 161 | 1.7 | 5.2 | 0.00 | 0.00 | 0.00 | 67 | 1018.0 |
| 20260504042800 | 67 | 161 | 1.7 | 5.2 | 0.00 | 0.00 | 0.00 | 67 | 1018.0 |
| 20260504042258 | 68 | 156 | 0.9 | 4.3 | 0.00 | 0.00 | 0.00 | 67 | 1018.2 |
| 20260504041731 | 68 | 155 | 0.9 | 4.3 | 0.00 | 0.00 | 0.00 | 67 | 1018.1 |
| 20260504041221 | 68 | 155 | 0.9 | 4.3 | 0.00 | 0.00 | 0.00 | 66 | 1018.1 |
| 20260504040718 | 68 | 155 | 0.9 | 2.6 | 0.00 | 0.00 | 0.00 | 66 | 1018.0 |
| 20260504040446 | 68 | 155 | 0.9 | 4.3 | 0.00 | 0.00 | 0.00 | 66 | 1018.0 |
| 20260504035710 | 68 | 155 | 2.6 | 5.2 | 0.00 | 0.00 | 0.00 | 65 | 1018.1 |
| 20260504035213 | 69 | 155 | 2.6 | 5.2 | 0.00 | 0.00 | 0.00 | 65 | 1018.0 |
| 20260504034639 | 69 | 167 | 1.7 | 6.1 | 0.00 | 0.00 | 0.00 | 65 | 1018.1 |
| 20260504034137 | 69 | 143 | 1.7 | 6.1 | 0.00 | 0.00 | 0.00 | 65 | 1018.2 |
| 20260504033612 | 69 | 161 | 1.7 | 4.3 | 0.00 | 0.00 | 0.00 | 65 | 1018.1 |
| 20260504033314 | 69 | 161 | 3.5 | 7.8 | 0.00 | 0.00 | 0.00 | 65 | 1018.1 |
| 20260504032812 | 69 | 154 | 3.5 | 8.7 | 0.00 | 0.00 | 0.00 | 64 | 1018.1 |
| 20260504032016 | 69 | 106 | 3.5 | 8.7 | 0.00 | 0.00 | 0.00 | 64 | 1018.0 |
| 20260504031718 | 69 | 168 | 2.6 | 8.7 | 0.00 | 0.00 | 0.00 | 64 | 1018.0 |
| 20260504031219 | 69 | 144 | 3.5 | 8.7 | 0.00 | 0.00 | 0.00 | 64 | 1018.0 |
| 20260504030419 | 69 | 142 | 3.5 | 7.8 | 0.00 | 0.00 | 0.00 | 63 | 1017.8 |
| 20260504025853 | 70 | 149 | 3.5 | 7.8 | 0.00 | 0.00 | 0.00 | 63 | 1017.8 |
| 20260504025350 | 70 | 137 | 2.6 | 7.8 | 0.00 | 0.00 | 0.00 | 63 | 1017.8 |
| 20260504024824 | 70 | 141 | 3.5 | 7.8 | 0.00 | 0.00 | 0.00 | 63 | 1017.8 |
| 20260504024256 | 70 | 144 | 3.5 | 8.7 | 0.00 | 0.00 | 0.00 | 63 | 1017.9 |
| 20260504024024 | 70 | 134 | 3.5 | 8.7 | 0.00 | 0.00 | 0.00 | 62 | 1017.9 |
| 20260504023228 | 70 | 162 | 3.5 | 7.8 | 0.00 | 0.00 | 0.00 | 62 | 1017.9 |
| 20260504022931 | 71 | 160 | 4.3 | 8.7 | 0.00 | 0.00 | 0.00 | 62 | 1017.9 |
| 20260504022157 | 71 | 133 | 4.3 | 8.7 | 0.00 | 0.00 | 0.00 | 62 | 1017.8 |
| 20260504021631 | 71 | 174 | 4.3 | 8.7 | 0.00 | 0.00 | 0.00 | 61 | 1017.8 |
| 20260504021336 | 71 | 147 | 4.3 | 8.7 | 0.00 | 0.00 | 0.00 | 60 | 1017.7 |
| 20260504020602 | 71 | 120 | 4.3 | 10.4 | 0.00 | 0.00 | 0.00 | 60 | 1017.7 |
| 20260504020035 | 71 | 147 | 5.2 | 10.4 | 0.00 | 0.00 | 0.00 | 60 | 1017.7 |
| 20260504015511 | 72 | 150 | 4.3 | 10.4 | 0.00 | 0.00 | 0.00 | 59 | 1017.7 |
| 20260504015012 | 72 | 73 | 4.3 | 10.4 | 0.00 | 0.00 | 0.00 | 59 | 1017.7 |
| 20260504014446 | 72 | 129 | 4.3 | 9.6 | 0.00 | 0.00 | 0.00 | 58 | 1017.7 |
| 20260504013919 | 72 | 177 | 4.3 | 10.4 | 0.00 | 0.00 | 0.00 | 58 | 1017.7 |
| 20260504013355 | 72 | 126 | 5.2 | 10.4 | 0.00 | 0.00 | 0.00 | 57 | 1017.6 |
| 20260504013336 | 73 | 133 | 5.2 | 9.6 | 0.00 | 0.00 | 0.00 | 56 | 1017.5 |
| 20260504012327 | 73 | 156 | 4.3 | 9.6 | 0.00 | 0.00 | 0.00 | 56 | 1017.5 |
| 20260504011827 | 73 | 125 | 3.5 | 8.7 | 0.00 | 0.00 | 0.00 | 56 | 1017.4 |
| 20260504011324 | 73 | 162 | 4.3 | 10.4 | 0.00 | 0.00 | 0.00 | 55 | 1017.4 |
| 20260504010826 | 73 | 206 | 5.2 | 13.0 | 0.00 | 0.00 | 0.00 | 55 | 1017.4 |
| 20260504010306 | 73 | 143 | 5.2 | 13.0 | 0.00 | 0.00 | 0.00 | 55 | 1017.4 |
| 20260504005750 | 74 | 143 | 4.3 | 11.3 | 0.00 | 0.00 | 0.00 | 55 | 1017.3 |
| 20260504005459 | 74 | 164 | 3.5 | 8.7 | 0.00 | 0.00 | 0.00 | 54 | 1017.4 |
| 20260504004703 | 74 | 143 | 4.3 | 8.7 | 0.00 | 0.00 | 0.00 | 54 | 1017.4 |
| 20260504004139 | 74 | 156 | 3.5 | 8.7 | 0.00 | 0.00 | 0.00 | 53 | 1017.4 |
| 20260504003909 | 75 | 179 | 4.3 | 9.6 | 0.00 | 0.00 | 0.00 | 53 | 1017.4 |
| 20260504003134 | 75 | 131 | 4.3 | 9.6 | 0.00 | 0.00 | 0.00 | 53 | 1017.3 |
| 20260504002617 | 75 | 139 | 4.3 | 9.6 | 0.00 | 0.00 | 0.00 | 52 | 1017.4 |
| 20260504002055 | 76 | 132 | 4.3 | 9.6 | 0.00 | 0.00 | 0.00 | 51 | 1017.4 |
| 20260504001556 | 77 | 156 | 3.5 | 8.7 | 0.00 | 0.00 | 0.00 | 50 | 1017.3 |
| 20260504001040 | 77 | 150 | 4.3 | 10.4 | 0.00 | 0.00 | 0.00 | 50 | 1017.3 |
| 20260504000534 | 77 | 164 | 5.2 | 10.4 | 0.00 | 0.00 | 0.00 | 49 | 1017.4 |
| 20260504000033 | 77 | 147 | 5.2 | 12.2 | 0.00 | 0.00 | 0.00 | 49 | 1017.5 |
| 20260503235508 | 78 | 204 | 4.3 | 12.2 | 0.00 | 0.00 | 0.00 | 49 | 1017.5 |
| 20260503234949 | 78 | 123 | 5.2 | 10.4 | 0.00 | 0.00 | 0.00 | 48 | 1017.3 |
| 20260503234416 | 78 | 143 | 5.2 | 11.3 | 0.00 | 0.00 | 0.00 | 47 | 1017.4 |
| 20260503233850 | 79 | 158 | 4.3 | 7.8 | 0.00 | 0.00 | 0.00 | 46 | 1017.5 |
| 20260503233348 | 79 | 136 | 5.2 | 12.2 | 0.00 | 0.00 | 0.00 | 46 | 1017.6 |
| 20260503232842 | 79 | 162 | 4.3 | 12.2 | 0.00 | 0.00 | 0.00 | 45 | 1017.6 |
| 20260503232546 | 80 | 202 | 3.5 | 9.6 | 0.00 | 0.00 | 0.00 | 45 | 1017.7 |
| 20260503231750 | 80 | 121 | 3.5 | 8.7 | 0.00 | 0.00 | 0.00 | 43 | 1017.6 |
| 20260503231224 | 80 | 130 | 3.5 | 9.6 | 0.00 | 0.00 | 0.00 | 42 | 1017.5 |
| 20260503230658 | 80 | 127 | 4.3 | 10.4 | 0.00 | 0.00 | 0.00 | 43 | 1017.5 |
| 20260503230131 | 80 | 170 | 3.5 | 10.4 | 0.00 | 0.00 | 0.00 | 43 | 1017.6 |
| 20260503225629 | 80 | 139 | 2.6 | 8.7 | 0.00 | 0.00 | 0.00 | 42 | 1017.7 |
| 20260503225103 | 80 | 142 | 2.6 | 7.0 | 0.00 | 0.00 | 0.00 | 41 | 1017.7 |
| 20260503224537 | 80 | 156 | 3.5 | 7.8 | 0.00 | 0.00 | 0.00 | 42 | 1017.8 |
| 20260503224009 | 80 | 97 | 3.5 | 8.7 | 0.00 | 0.00 | 0.00 | 42 | 1017.8 |
| 20260503223737 | 80 | 131 | 3.5 | 8.7 | 0.00 | 0.00 | 0.00 | 42 | 1017.9 |